[[{"header":{"parameterUnit":"m.s-1","parameterCategory":1,"la1":30.2991,"la2":30.254,"lo1":-89.0895,"lo2":-89.0444,"dy":0.0017,"dx":0.0017,"nx":28,"ny":28,"refTime":"2024-08-05T03:00:00:Z","depth":0,"parameterNumber":2,"parameterNumberName":"U-component_of_WINDS"},"data":[0,0,0,0,0,0,0,0,0,0,0,0,0,0,0,0,0,0,0,0,0,0,0,0,0,0,0,0,0,0,0,0,0,0,0,0,0,0,0,0,0,0,0,0,0,0,0,0,0,0,0,0,0,0,0,0,0,0,-0.6057,-0.6059,0,-0.6243,-0.6246,-0.6248,-0.6284,-0.6283,-0.6281,-0.628,-0.6478,-0.6485,-0.6491,0,0,0,0,0,0,0,0,0,0,0,0,0,-0.5741,-0.5746,-0.6057,-0.6059,-0.6062,-0.6243,-0.6246,-0.6248,-0.6284,-0.6283,-0.6281,-0.6279,-0.6476,-0.6484,-0.6492,0,0,0,0,0,0,0,0,0,0,0,0,0,-0.5898,-0.5748,-0.6057,-0.6101,-0.6107,-0.6243,-0.6246,-0.6249,-0.6285,-0.6283,-0.628,-0.6278,-0.6473,-0.6483,-0.6493,-0.6599,0,0,-0.6523,-0.6528,0,0,0,0,0,0,0,0,-0.5889,-0.5909,-0.6093,-0.6099,-0.6105,-0.6238,-0.6207,-0.6367,-0.6285,-0.6218,-0.628,-0.6277,-0.6401,-0.6416,-0.6456,-0.6608,-0.6617,-0.6524,-0.653,-0.6535,-0.6537,0,0,0,0,0,0,0,-0.5878,-0.5902,-0.6131,-0.6095,-0.6103,-0.6115,-0.6135,-0.6237,-0.632,-0.6223,-0.6226,-0.6248,-0.6404,-0.6447,-0.6461,-0.662,-0.6524,-0.6533,-0.6539,-0.6543,-0.687,-0.6873,0,0,0,0,0,0,-0.5858,-0.5892,-0.6125,-0.6137,-0.5989,-0.6122,-0.6145,-0.6198,-0.6318,-0.6335,-0.6249,-0.6249,-0.6431,-0.645,-0.6469,-0.6602,-0.6535,-0.6544,-0.655,-0.6868,-0.6871,-0.6874,0,0,0,0,0,0,-0.5851,-0.5878,-0.6118,-0.6015,-0.6047,-0.613,-0.619,-0.6203,-0.6246,-0.6338,-0.6354,-0.6278,-0.643,-0.6454,-0.6566,-0.661,-0.6548,-0.6557,-0.6865,-0.6869,-0.6873,-0.6869,0,0,0,0,0,0,-0.5842,-0.5876,-0.5915,-0.6016,-0.6052,-0.621,-0.6192,-0.6208,-0.6262,-0.6263,-0.6369,-0.6384,-0.643,-0.6551,-0.6576,-0.6622,-0.6565,-0.6861,-0.6866,-0.6871,-0.6866,-0.6873,-0.6878,0,0,0,0,0,-0.583,-0.5908,-0.5917,-0.5944,-0.6102,-0.6212,-0.6233,-0.6282,-0.6265,-0.6307,-0.6366,-0.6381,-0.66,-0.6562,-0.6591,-0.664,-0.6859,-0.6865,-0.6871,-0.6863,-0.6871,-0.6878,0,0,0,0,0,0,-0.5812,-0.5922,-0.5933,-0.6044,-0.6118,-0.6218,-0.6272,-0.6289,-0.6371,-0.6369,-0.6428,-0.6452,-0.6561,-0.6612,-0.6567,-0.6751,-0.6729,-0.6741,-0.6713,-0.6722,-0.6728,-0.6714,-0.6574,0,0,0,0,0,-0.582,-0.5898,-0.599,-0.608,-0.6117,-0.6188,-0.6237,-0.6268,-0.6349,-0.6381,-0.6448,-0.6528,-0.6615,-0.6671,-0.6756,-0.6873,-0.6898,-0.6922,-0.6928,-0.6932,-0.6943,-0.7011,-0.7023,-0.6894,-0.6894,-0.6894,0,0,-0.5839,-0.5909,-0.5955,-0.6078,-0.6139,-0.6221,-0.6214,-0.63,-0.6362,-0.6395,-0.6504,-0.6557,-0.6649,-0.6764,-0.6819,-0.681,-0.6984,-0.694,-0.6943,-0.6951,-0.7018,-0.703,-0.7041,-0.6898,-0.6897,-0.6897,0,0,-0.5916,-0.5975,-0.6057,-0.6118,-0.621,-0.6257,-0.6276,-0.6374,-0.6409,-0.6519,-0.6546,-0.6622,-0.677,-0.6836,-0.6888,-0.6991,-0.7008,-0.7017,-0.705,-0.7116,-0.7126,-0.7136,-0.7174,-0.7187,-0.7027,-0.7027,-0.7027,0,-0.5929,-0.605,-0.6098,-0.6183,-0.6238,-0.6269,-0.6354,-0.6412,-0.6528,-0.6566,-0.6554,-0.6742,-0.6806,-0.6938,-0.6963,-0.7004,-0.7031,-0.7006,-0.712,-0.713,-0.714,-0.7177,-0.7191,-0.7027,-0.7027,-0.7027,-0.7027,0,-0.6063,-0.6147,-0.6202,-0.6311,-0.6372,-0.6457,-0.652,-0.6577,-0.6603,-0.6652,-0.6765,-0.6844,-0.6946,-0.6979,-0.7007,-0.7116,-0.7108,-0.7108,-0.7088,-0.7152,-0.7188,-0.7203,-0.7028,-0.7028,-0.7028,-0.7028,0,0,-0.6133,-0.6267,-0.6287,-0.6337,-0.6441,-0.6508,-0.6596,-0.6693,-0.6742,-0.6821,-0.6898,-0.7023,-0.7023,-0.7083,-0.7118,-0.7175,-0.7254,-0.7168,-0.7171,-0.7183,-0.7382,-0.7382,-0.7398,-0.7265,-0.7268,-0.7271,-0.7375,0,-0.6223,-0.6377,-0.6423,-0.6554,-0.6634,-0.6665,-0.6742,-0.6815,-0.6863,-0.694,-0.6995,-0.7083,-0.7076,-0.7113,-0.717,-0.7232,-0.7295,-0.7225,-0.734,-0.7344,-0.7317,-0.7417,-0.7417,-0.7512,-0.7389,-0.7392,-0.7393,0,-0.6349,-0.6428,-0.6566,-0.6661,-0.6696,-0.6763,-0.6858,-0.693,-0.7015,-0.7047,-0.7113,-0.7144,-0.724,-0.7213,-0.7347,-0.7298,-0.7349,-0.7386,-0.7391,-0.7405,-0.7373,-0.7435,-0.7543,-0.7557,-0.7416,-0.7414,-0.7412,0,-0.6388,-0.653,-0.6631,-0.6673,-0.6785,-0.6833,-0.6882,-0.6965,-0.7021,-0.7105,-0.7143,-0.7237,-0.7289,-0.7362,-0.7419,-0.7393,-0.7549,-0.7526,-0.758,-0.7579,-0.7612,-0.761,-0.7731,-0.7642,-0.7642,-0.7642,-0.7641,0,-0.6485,-0.6568,-0.665,-0.6712,-0.6808,-0.6861,-0.6955,-0.7007,-0.7081,-0.7156,-0.7189,-0.726,-0.7329,-0.741,-0.7454,-0.756,-0.7583,-0.7613,-0.7625,-0.7611,-0.7607,-0.7646,-0.7641,-0.7645,-0.7645,-0.7644,-0.7643,0,-0.6545,-0.6602,-0.6715,-0.6812,-0.6839,-0.6905,-0.699,-0.7053,-0.7103,-0.7198,-0.7223,-0.7302,-0.7399,-0.7462,-0.7586,-0.7616,-0.7732,-0.7741,-0.7702,-0.7708,-0.7759,-0.7754,-0.791,-0.7935,-0.7828,-0.7829,-0.7829,0,-0.6603,-0.6668,-0.6771,-0.6823,-0.6872,-0.6955,-0.7012,-0.7068,-0.7127,-0.723,-0.7282,-0.738,-0.7462,-0.7615,-0.7686,-0.7781,-0.7794,-0.7842,-0.7809,-0.7793,-0.7797,-0.7792,-0.78,-0.7848,-0.7849,-0.7849,-0.785,0,-0.6701,-0.6726,-0.6806,-0.6896,-0.6963,-0.7038,-0.7113,-0.7154,-0.7224,-0.7289,-0.7386,-0.745,-0.7576,-0.7674,-0.7776,-0.7831,-0.7854,-0.786,-0.7878,-0.7865,-0.7841,-0.7856,-0.7719,-0.7856,-0.7856,-0.7855,-0.7855,-0.7855,-0.6763,-0.6822,-0.6905,-0.6993,-0.7055,-0.7125,-0.7189,-0.7246,-0.7328,-0.7433,-0.7462,-0.7565,-0.7652,-0.7791,-0.7847,-0.7931,-0.7925,-0.7951,-0.7957,-0.7963,-0.7964,-0.7826,-0.795,-0.7949,-0.7949,-0.7949,-0.7949,0,-0.6863,-0.6918,-0.6999,-0.7101,-0.7172,-0.7184,-0.7268,-0.7327,-0.7416,-0.7493,-0.7573,-0.7687,-0.7783,-0.786,-0.796,-0.8012,-0.8025,-0.8036,-0.8034,-0.8047,-0.7963,-0.7938,-0.8024,-0.8024,-0.8024,-0.8024,-0.8024,-0.8024,-0.6924,-0.7026,-0.7061,-0.7195,-0.725,-0.7349,-0.7397,-0.7462,-0.7524,-0.7649,-0.7728,-0.7777,-0.7856,-0.7961,-0.8051,-0.8072,-0.8108,-0.8117,-0.814,-0.8061,-0.8052,-0.8044,-0.8021,-0.8124,-0.8124,-0.8217,-0.8218,-0.8219]},{"header":{"parameterUnit":"m.s-1","parameterCategory":1,"la1":30.2991,"la2":30.254,"lo1":-89.0895,"lo2":-89.0444,"dy":0.0017,"dx":0.0017,"nx":28,"ny":28,"refTime":"2024-08-05T03:00:00:Z","depth":0,"parameterNumber":3,"parameterNumberName":"V-component_of_WINDS"},"data":[0,0,0,0,0,0,0,0,0,0,0,0,0,0,0,0,0,0,0,0,0,0,0,0,0,0,0,0,0,0,0,0,0,0,0,0,0,0,0,0,0,0,0,0,0,0,0,0,0,0,0,0,0,0,0,0,0,0,-3.3449,-3.3449,0,-3.3443,-3.3443,-3.3443,-3.3367,-3.3365,-3.3363,-3.3361,-3.3355,-3.3357,-3.3358,0,0,0,0,0,0,0,0,0,0,0,0,0,-3.3394,-3.3395,-3.3449,-3.3449,-3.3449,-3.3443,-3.3443,-3.3443,-3.3367,-3.3365,-3.3363,-3.336,-3.3354,-3.3356,-3.3358,0,0,0,0,0,0,0,0,0,0,0,0,0,-3.3406,-3.3396,-3.3449,-3.341,-3.3407,-3.3443,-3.3443,-3.3443,-3.3368,-3.3365,-3.3362,-3.3359,-3.3354,-3.3356,-3.3359,-3.3431,0,0,-3.3366,-3.3367,0,0,0,0,0,0,0,0,-3.3405,-3.3408,-3.3416,-3.3413,-3.3409,-3.3403,-3.3421,-3.3439,-3.3368,-3.3383,-3.3361,-3.3358,-3.3373,-3.3374,-3.3379,-3.3431,-3.3431,-3.3366,-3.3368,-3.3369,-3.3369,0,0,0,0,0,0,0,-3.3405,-3.3408,-3.3447,-3.3416,-3.3412,-3.3393,-3.3392,-3.3424,-3.3394,-3.3381,-3.3376,-3.3376,-3.3371,-3.3377,-3.3378,-3.3431,-3.3366,-3.3368,-3.337,-3.3371,-3.3542,-3.3545,0,0,0,0,0,0,-3.3409,-3.3408,-3.3447,-3.3446,-3.34,-3.3396,-3.3395,-3.3408,-3.3394,-3.3389,-3.3378,-3.3372,-3.3374,-3.3376,-3.3378,-3.3462,-3.3369,-3.3371,-3.3372,-3.3539,-3.3542,-3.3546,0,0,0,0,0,0,-3.3408,-3.3413,-3.3447,-3.3425,-3.3428,-3.34,-3.3416,-3.3409,-3.3415,-3.3391,-3.3386,-3.339,-3.3372,-3.3374,-3.3418,-3.3461,-3.3372,-3.3374,-3.3535,-3.354,-3.3544,-3.3631,0,0,0,0,0,0,-3.3407,-3.3413,-3.3441,-3.3427,-3.343,-3.3488,-3.3418,-3.3411,-3.342,-3.3412,-3.3401,-3.3397,-3.337,-3.3415,-3.3421,-3.3462,-3.3376,-3.3531,-3.3537,-3.3542,-3.3624,-3.3638,-3.365,0,0,0,0,0,-3.3405,-3.3466,-3.3443,-3.3448,-3.3464,-3.3491,-3.3493,-3.3461,-3.3423,-3.3451,-3.3435,-3.3397,-3.3455,-3.342,-3.3426,-3.3469,-3.3528,-3.3535,-3.3542,-3.3618,-3.3635,-3.3649,0,0,0,0,0,0,-3.3486,-3.3463,-3.3438,-3.3495,-3.3496,-3.3478,-3.3511,-3.3479,-3.349,-3.3482,-3.3442,-3.3441,-3.3491,-3.3484,-3.3446,-3.3538,-3.3485,-3.3493,-3.3541,-3.3557,-3.3569,-3.357,-3.3378,0,0,0,0,0,-3.351,-3.3535,-3.3513,-3.3566,-3.3568,-3.354,-3.355,-3.3526,-3.3524,-3.3524,-3.3512,-3.3512,-3.353,-3.3543,-3.3558,-3.3623,-3.3619,-3.3655,-3.3668,-3.3678,-3.3686,-3.3719,-3.3735,-3.3568,-3.3568,-3.3568,0,0,-3.3561,-3.3552,-3.3569,-3.3582,-3.3579,-3.3605,-3.354,-3.357,-3.3589,-3.3529,-3.3569,-3.3561,-3.3558,-3.3613,-3.3636,-3.3609,-3.3731,-3.3687,-3.3696,-3.3698,-3.3728,-3.3744,-3.3758,-3.3573,-3.3572,-3.3571,0,0,-3.3667,-3.3662,-3.3706,-3.3704,-3.3701,-3.3682,-3.3693,-3.368,-3.3672,-3.3712,-3.3667,-3.3689,-3.3721,-3.3721,-3.3725,-3.3831,-3.3796,-3.3837,-3.3904,-3.3937,-3.395,-3.3961,-3.3999,-3.4013,-3.3845,-3.3845,-3.3845,0,-3.3731,-3.3768,-3.3732,-3.3765,-3.3772,-3.3718,-3.3762,-3.3762,-3.3764,-3.377,-3.3739,-3.3779,-3.3773,-3.3827,-3.3853,-3.3858,-3.3868,-3.3838,-3.3951,-3.3962,-3.3972,-3.4007,-3.4022,-3.385,-3.3849,-3.3849,-3.3848,0,-3.3846,-3.3872,-3.3908,-3.3911,-3.3922,-3.396,-3.393,-3.3945,-3.392,-3.3904,-3.3946,-3.3937,-3.395,-3.396,-3.3936,-3.4011,-3.3994,-3.3958,-3.3903,-3.3993,-3.4026,-3.4039,-3.3857,-3.3855,-3.3854,-3.3852,0,0,-3.4002,-3.3985,-3.3999,-3.4,-3.3992,-3.4012,-3.4047,-3.406,-3.4073,-3.4076,-3.4105,-3.4134,-3.41,-3.4105,-3.408,-3.4109,-3.4193,-3.4068,-3.4068,-3.4092,-3.4275,-3.4302,-3.4318,-3.4169,-3.4172,-3.4174,-3.4275,0,-3.4104,-3.4164,-3.4133,-3.4197,-3.4221,-3.417,-3.4201,-3.42,-3.4186,-3.4204,-3.4188,-3.4209,-3.4163,-3.4166,-3.4192,-3.4177,-3.4229,-3.4169,-3.4196,-3.4197,-3.4198,-3.4335,-3.4365,-3.446,-3.4287,-3.429,-3.4291,0,-3.4231,-3.424,-3.4306,-3.4294,-3.4302,-3.4331,-3.4339,-3.4357,-3.4355,-3.4342,-3.4348,-3.4316,-3.435,-3.4296,-3.4342,-3.4302,-3.4311,-3.4305,-3.4308,-3.4309,-3.425,-3.4341,-3.449,-3.4505,-3.4311,-3.4309,-3.4308,0,-3.4339,-3.4367,-3.441,-3.4412,-3.4399,-3.442,-3.4415,-3.441,-3.4419,-3.4427,-3.4432,-3.4444,-3.445,-3.446,-3.4432,-3.4395,-3.4482,-3.4425,-3.4473,-3.4474,-3.4493,-3.4492,-3.4647,-3.4499,-3.4499,-3.4499,-3.4498,0,-3.4456,-3.4498,-3.4458,-3.4485,-3.4531,-3.4494,-3.4541,-3.4531,-3.4526,-3.455,-3.4507,-3.453,-3.4491,-3.4511,-3.4489,-3.453,-3.4533,-3.4525,-3.4518,-3.4529,-3.453,-3.4534,-3.4527,-3.4503,-3.4502,-3.4501,-3.45,0,-3.4584,-3.4558,-3.4602,-3.4586,-3.4583,-3.4617,-3.4603,-3.4627,-3.461,-3.4641,-3.4646,-3.462,-3.464,-3.4613,-3.463,-3.4616,-3.4673,-3.4656,-3.4674,-3.4669,-3.4718,-3.4714,-3.488,-3.49,-3.474,-3.4742,-3.4743,0,-3.466,-3.4692,-3.4679,-3.4691,-3.4689,-3.4711,-3.472,-3.4685,-3.4697,-3.4696,-3.472,-3.4737,-3.4748,-3.4783,-3.4766,-3.4779,-3.4763,-3.482,-3.4765,-3.4774,-3.4764,-3.4762,-3.4765,-3.4832,-3.4834,-3.4835,-3.4837,0,-3.4798,-3.4784,-3.4799,-3.481,-3.4823,-3.4829,-3.4833,-3.4846,-3.481,-3.4825,-3.4845,-3.4854,-3.4872,-3.489,-3.4898,-3.4893,-3.4859,-3.4854,-3.4866,-3.4877,-3.4886,-3.4882,-3.4705,-3.4851,-3.4849,-3.4848,-3.4847,-3.4847,-3.4903,-3.4928,-3.4923,-3.4941,-3.4941,-3.4945,-3.4967,-3.4952,-3.4969,-3.4981,-3.4959,-3.4985,-3.4981,-3.4989,-3.4988,-3.5008,-3.4983,-3.5,-3.5004,-3.5009,-3.5017,-3.4882,-3.5009,-3.5009,-3.5008,-3.5008,-3.5008,0,-3.5039,-3.5033,-3.505,-3.5056,-3.5071,-3.5037,-3.504,-3.5054,-3.5077,-3.5076,-3.5089,-3.5112,-3.5128,-3.5112,-3.5125,-3.5144,-3.5129,-3.5149,-3.5147,-3.5147,-3.5038,-3.5027,-3.5161,-3.5161,-3.5161,-3.5161,-3.5161,-3.5161,-3.5111,-3.5153,-3.5138,-3.5179,-3.5172,-3.5197,-3.5201,-3.5205,-3.5204,-3.5232,-3.5246,-3.5235,-3.5228,-3.524,-3.5254,-3.5249,-3.5256,-3.5282,-3.5271,-3.517,-3.5155,-3.514,-3.5129,-3.5283,-3.5283,-3.5378,-3.5379,-3.538]}]]